LXGB Airport Information

Runway Information
Runway 09 Length 6000 ft width 150 ft
Elevation 10 ft Threshold 302 ft Heading 88
Runway 27 Length 6000 ft Width 150 ft
Elevation 11 ft Threshold 368 ft Heading 268
Airport Frequencies
Type A/D Name APP Frequency 122.8 MHZ
Type OPS Name GIB TALKDO Frequency 130.4 MHZ
Type TWR Name TWR Frequency 131.2 MHZ
Airport Navaids
Type TACAN Name Gibraltar Frequency 113600 KHZ
Airport Weather Information & NOTAM
ADDS - METARS form results

(0311 UTC 07 July 2020)
Data provider http://aviationweather.gov/metar/data/
 
METAR text: LXGB 070250Z AUTO 26001KT 9999 // NCD 20/17 Q1014
Conditions at: LXGB (GIBRALTAR (CIV/M, GI) observed 0250 UTC 07 July 2020
Temperature: 20.0°C (68°F)
Dewpoint: 17.0°C (63°F) [RH = 83%]
Pressure (altimeter): 29.94 inches Hg (1014.0 mb)
Winds: from the W (260 degrees) at 1 MPH (1 knots; 0.5 m/s)
Visibility: 6 or more miles (10+ km)
Ceiling: at least 12,000 feet AGL
Clouds: sky clear below 12,000 feet AGL
Weather: no significant weather observed at this time